Dewpoint
40 40 41 41 41 42 42 42 41 41 41 41 42 43 44 44 45 45 44 44 44 45 45 45 46 46 46 46 47 49 50 51 51 51 51 51 52 52 51 51 51 51 51 51 51 52 52 52 52 52 52 51 51 51 51 50 51 51 50 50 50 49 48 48 47 41 43 45 47 46 45 46 44 45 45 45 44 44 45 47 47 47 48 47 47
41 41 41 41 41 42 43 43 42 42 41 42 41 43 44 44 44 43 43 44 44 45 45 45 46 46 47 47 49 50 51 51 51 50 50 50 51 51 51 50 50 51 51 50 51 51 51 51 51 51 52 51 51 51 50 49 50 50 49 50 50 49 49 48 47 43 40 40 42 43 43 46 45 45 46 45 45 44 44 44 44 45 47 47 46
41 42 42 42 42 42 43 43 43 43 42 42 42 43 44 44 43 44 44 43 43 45 45 46 46 47 48 49 50 50 51 51 51 51 51 51 50 50 50 50 50 50 50 50 50 51 51 51 51 50 50 51 51 51 50 49 49 50 49 49 49 49 49 48 46 41 41 39 41 41 42 43 46 45 45 46 45 44 44 43 44 43 43 44 45
41 41 42 42 42 42 43 43 43 43 42 42 42 43 43 43 43 44 43 43 44 44 45 46 46 47 48 49 50 51 51 51 50 51 51 51 50 50 50 50 50 50 50 50 49 50 50 50 50 50 48 49 50 51 50 50 49 49 49 49 49 49 48 48 47 45 39 40 37 40 40 41 41 42 44 42 43 42 44 41 40 39 41 41 43
41 41 41 42 42 42 42 42 42 42 42 43 42 42 42 42 42 43 43 43 43 44 45 46 46 47 48 49 50 51 51 50 50 50 51 50 50 50 50 50 50 50 50 50 47 49 50 50 50 50 48 48 47 49 49 49 49 49 49 49 49 49 47 47 46 44 42 41 38 35 36 39 36 36 40 41 39 38 38 39 39 40 38 38 38
40 41 41 41 41 41 41 41 42 42 42 42 42 42 42 41 42 42 43 43 43 44 45 46 47 48 49 50 51 51 51 50 50 50 50 49 50 50 50 49 50 50 50 50 50 49 50 50 50 50 49 49 47 48 49 49 49 49 49 49 48 47 47 45 44 43 44 40 40 35 36 38 36 36 36 39 41 40 38 38 38 37 37 39 39
40 40 40 41 41 41 41 41 42 42 41 42 41 41 41 40 41 41 42 43 43 44 45 47 47 48 49 50 51 51 51 50 50 50 50 49 49 49 49 49 49 49 49 49 49 49 50 50 50 49 49 49 48 48 48 48 49 48 48 48 47 46 45 43 41 41 41 38 36 37 37 35 37 37 34 36 38 40 41 39 39 37 36 38 41
39 39 40 40 40 40 41 41 41 41 41 40 40 40 40 39 40 41 40 42 42 44 45 46 46 46 48 49 50 51 51 50 50 50 49 50 50 50 50 49 49 49 49 49 49 49 49 49 49 49 49 48 48 48 49 48 48 48 47 47 46 46 45 42 40 41 39 38 37 37 34 35 33 32 33 35 36 37 37 40 42 42 40 37 36
38 38 38 39 39 40 40 40 40 39 38 39 39 39 39 39 39 39 40 41 42 43 44 44 44 45 47 48 49 49 50 50 50 49 49 50 50 50 49 49 49 49 48 48 49 49 49 49 49 49 47 44 43 44 45 46 49 48 46 47 46 45 44 42 42 40 38 38 36 34 35 34 34 34 34 35 38 41 39 37 39 38 37 36 37
37 37 38 38 39 38 38 38 38 37 38 38 38 38 38 38 38 38 39 40 41 40 41 43 45 46 47 47 47 48 49 50 47 45 46 49 50 50 49 49 48 48 48 47 47 47 48 49 47 43 42 42 42 42 43 43 44 48 48 47 46 45 43 42 40 40 39 39 38 36 36 36 35 35 36 37 36 34 35 36 38 36 34 35 35
36 37 38 38 38 37 37 37 36 37 38 38 37 37 37 37 37 38 38 39 41 40 40 43 45 46 47 46 45 46 48 48 44 45 45 46 49 49 49 48 48 47 47 46 46 46 46 47 47 43 41 40 42 41 42 42 43 43 43 43 44 46 44 42 41 40 40 40 38 37 38 37 36 36 37 36 35 36 36 36 36 35 36 36 37
37 36 36 36 35 36 36 36 36 36 36 37 36 36 35 35 36 37 38 39 40 39 40 43 45 45 45 45 45 45 45 43 44 44 44 45 45 48 49 48 48 47 46 46 46 46 46 45 45 45 45 46 45 43 41 40 41 41 42 42 42 42 43 44 42 40 40 39 37 37 38 38 37 36 35 35 35 35 35 35 36 36 36 36 36
36 36 35 35 35 35 35 36 36 35 36 36 36 35 35 36 36 36 38 39 39 40 42 43 44 44 44 45 44 44 41 42 43 44 44 44 44 46 49 48 47 47 46 46 46 45 45 45 44 45 46 40 42 44 44 42 39 40 40 40 40 41 42 42 42 44 43 41 40 38 38 39 37 36 36 36 36 36 34 35 35 35 36 36 36
35 35 34 35 35 35 35 36 36 35 35 35 34 35 35 36 36 36 36 37 40 41 41 41 42 43 43 44 43 41 42 41 42 42 43 43 43 45 48 47 47 46 46 45 45 45 44 44 44 44 42 42 42 44 44 43 42 42 42 42 43 41 40 40 40 40 41 43 41 40 38 38 39 38 36 36 36 36 35 35 35 35 35 35 34
34 34 34 34 34 35 35 35 35 35 34 34 34 35 35 35 35 35 36 38 39 40 41 41 42 41 41 41 41 41 41 41 41 42 42 42 43 44 47 47 46 46 45 45 45 45 44 45 45 44 43 42 43 42 42 42 43 42 41 41 42 41 41 40 40 40 41 42 42 40 39 39 39 37 37 37 37 37 36 36 36 35 34 32 32
33 32 33 33 34 34 35 35 35 34 34 34 34 35 34 35 35 35 36 36 37 38 39 40 41 41 40 40 40 40 39 40 40 41 42 42 43 45 46 46 45 45 43 41 43 43 44 44 43 42 42 42 40 40 41 43 42 41 40 40 39 38 39 40 40 40 42 42 41 41 40 40 39 37 36 37 36 35 35 35 34 34 33 33 33
32 32 32 33 34 34 35 35 34 34 34 34 34 35 34 34 33 33 35 35 36 37 39 39 40 40 39 40 40 40 39 38 39 40 41 42 42 44 45 45 44 44 44 41 42 40 42 42 42 43 41 41 40 41 41 40 41 41 40 40 39 39 39 38 39 39 40 40 40 40 40 40 40 39 38 38 36 36 35 34 33 34 33 33 33
31 31 32 32 33 34 34 35 34 34 34 34 35 35 35 34 34 34 35 34 35 36 37 38 38 39 39 39 40 40 40 38 38 40 40 41 41 44 44 44 41 41 39 39 40 41 41 38 39 42 41 41 40 41 41 41 41 41 40 39 38 38 38 37 38 38 39 39 39 39 39 39 39 39 38 38 37 36 36 35 34 34 34 34 34
29 30 31 32 33 34 34 34 34 34 34 35 35 34 34 35 34 33 34 34 34 34 36 36 36 37 38 38 36 39 39 37 38 39 40 41 42 44 43 42 40 39 38 38 37 37 38 37 37 39 40 40 40 41 41 40 41 40 40 39 39 39 39 37 38 37 37 37 36 37 36 37 37 37 37 37 36 35 38 37 35 35 35 34 34
30 29 29 30 31 32 33 34 34 34 34 34 34 35 34 33 33 33 33 33 32 33 35 35 35 36 36 37 37 38 39 38 36 39 40 40 41 42 42 42 40 39 38 38 37 36 36 37 37 39 41 40 40 41 41 41 41 40 40 40 39 40 38 38 38 38 37 38 36 36 36 35 35 35 35 35 35 35 36 36 36 36 35 34 34
27 28 28 29 29 31 32 33 34 33 34 34 34 34 33 34 33 33 33 32 31 32 34 34 34 34 35 36 36 37 39 38 36 38 39 40 41 41 41 42 41 39 38 37 38 38 37 37 37 38 40 40 40 41 41 41 40 40 40 41 41 39 37 38 36 36 37 36 35 35 36 35 35 35 35 35 35 35 35 35 36 36 36 34 34
27 27 28 29 29 30 31 32 32 33 33 31 32 32 32 33 33 33 32 32 32 32 33 33 34 34 34 35 36 36 36 36 37 36 38 40 40 40 41 40 40 40 38 38 37 38 38 38 38 38 39 39 40 40 41 41 40 38 40 40 39 38 38 36 36 36 36 36 36 35 35 35 35 35 35 35 34 35 35 35 35 35 35 36 35
26 27 27 28 28 29 30 31 32 32 32 32 32 32 32 32 31 32 31 31 31 32 33 33 33 33 33 34 35 36 36 36 36 36 37 39 40 40 40 39 39 39 39 38 37 38 37 37 37 36 38 38 39 40 41 40 39 39 40 39 38 37 36 37 36 36 36 36 35 35 35 35 35 34 34 34 34 34 34 34 34 33 33 31 31
26 26 26 27 28 28 29 30 31 31 31 32 32 32 31 32 32 32 32 32 32 32 33 33 33 33 33 33 34 35 36 36 35 35 36 38 39 40 40 39 39 39 39 39 38 38 37 37 37 36 37 38 39 40 40 39 37 39 39 38 37 35 36 36 36 36 35 35 35 35 34 34 34 34 34 34 34 33 33 33 33 32 31 29 29
27 26 25 26 27 28 28 29 30 31 31 31 31 32 31 31 32 31 32 32 32 32 32 33 33 33 33 33 33 34 35 36 36 35 35 36 38 39 39 39 39 38 38 37 37 37 37 37 36 36 37 38 38 38 38 37 37 37 37 36 34 36 36 36 36 35 35 35 35 35 34 34 34 34 33 33 33 33 32 31 29 28 27 27 26
28 28 27 24 26 26 28 28 29 30 30 31 32 32 32 32 32 32 32 32 32 32 32 32 33 32 32 32 32 33 34 35 36 35 35 35 36 37 38 37 36 36 36 36 35 36 36 36 36 36 36 36 36 36 36 35 36 35 35 34 35 35 35 36 36 36 35 35 34 34 34 34 33 31 32 33 33 33 32 30 29 29 29 29 28
29 28 28 28 24 26 27 28 29 29 29 30 31 31 32 32 32 32 32 32 32 32 32 32 32 32 31 31 32 33 34 34 35 35 36 36 37 36 37 36 35 35 35 35 35 35 35 35 36 35 35 35 35 34 34 34 34 35 34 34 34 34 34 35 35 35 35 34 34 34 33 33 32 32 32 33 32 32 32 31 30 29 29 29 28
28 28 28 28 28 27 28 28 29 29 30 30 31 31 31 31 32 32 32 32 32 32 32 32 32 32 32 31 31 32 33 34 35 35 36 36 37 37 37 36 36 36 36 35 35 35 35 34 34 35 34 34 34 34 34 34 34 34 35 34 34 34 34 34 33 32 32 34 33 33 33 32 32 33 32 32 32 31 31 30 29 28 29 29 28
27 28 29 29 28 27 28 29 29 29 29 30 31 31 31 31 32 32 32 33 33 32 32 32 32 32 32 32 31 32 32 33 34 34 35 36 36 37 37 37 37 36 35 35 34 35 35 35 34 34 34 33 33 33 33 33 33 33 33 34 34 34 34 34 34 34 34 34 34 34 33 33 32 32 32 31 30 30 31 30 29 28 28 29 29
26 28 29 29 29 28 28 29 29 30 30 30 30 30 29 30 32 32 32 31 31 32 32 32 32 32 32 32 32 32 32 33 34 35 35 35 36 36 36 36 37 36 35 36 35 35 35 35 34 34 33 33 32 32 32 32 32 32 32 33 33 34 33 34 34 34 34 34 34 33 33 33 32 31 31 30 29 30 30 30 28 28 27 28 27
24 26 28 29 30 30 29 29 29 30 30 30 30 30 29 29 31 32 31 30 31 32 33 32 32 32 32 31 31 33 32 33 34 34 35 35 35 36 36 36 36 36 36 35 35 35 35 35 34 34 33 33 33 33 32 32 32 32 32 33 33 33 33 33 34 34 34 34 34 33 33 33 32 31 31 30 28 29 29 29 28 28 28 28 27
22 24 27 28 29 29 29 30 29 29 29 30 30 30 30 29 27 29 30 30 31 32 33 33 33 33 33 32 30 29 32 33 34 34 35 35 35 35 36 36 36 36 36 36 35 35 35 35 34 34 34 33 33 33 33 32 32 32 32 32 32 33 33 33 34 34 34 34 33 33 33 33 32 31 31 30 29 28 28 27 27 27 27 27 27
20 24 26 27 28 29 29 30 30 30 30 30 30 30 30 29 29 29 28 30 31 32 32 33 33 33 33 33 32 32 32 33 34 34 34 35 35 35 35 36 36 36 36 35 34 34 34 34 34 33 33 33 33 33 33 33 33 32 33 33 32 33 34 34 34 34 34 34 33 33 33 32 32 31 31 29 28 28 27 27 27 27 27 26 25
20 24 25 26 27 28 29 29 30 30 30 30 30 30 30 30 30 30 30 29 28 29 31 32 33 33 33 33 32 32 32 33 33 34 34 34 35 35 35 35 36 36 35 34 34 34 34 34 33 33 33 33 33 33 33 33 33 33 33 33 33 33 33 33 34 34 33 33 33 33 33 32 31 31 30 29 29 28 27 27 27 26 25 26 25
19 22 25 26 26 27 29 29 29 30 30 30 30 30 30 31 30 30 30 30 30 30 30 31 31 32 32 32 33 32 33 33 33 33 34 34 35 35 35 34 34 34 35 34 34 33 33 33 33 33 33 33 33 33 33 33 33 33 33 33 33 33 33 33 33 33 33 33 33 33 33 32 31 31 30 29 28 27 27 27 26 26 26 25 25
16 19 22 25 26 26 27 29 29 30 30 30 31 31 31 31 31 30 30 30 30 30 30 31 31 30 31 31 32 32 32 33 33 33 34 34 35 35 33 33 33 34 34 34 33 33 33 33 33 33 33 33 33 33 33 33 33 33 33 33 33 33 33 33 33 33 33 33 33 33 32 32 31 31 30 29 28 28 27 27 26 26 26 25 25
14 17 20 23 25 26 27 28 29 29 30 31 31 31 31 31 31 31 30 30 30 30 31 31 31 30 30 30 31 31 32 33 33 33 33 34 35 34 34 34 33 33 33 34 33 33 33 33 33 33 33 33 33 33 33 33 32 32 32 32 32 32 32 33 33 33 33 33 33 33 32 32 31 31 30 29 28 28 28 27 27 26 25 25 24
13 15 18 20 23 25 26 27 28 29 30 30 30 30 30 30 30 31 30 30 30 31 31 31 31 31 31 31 32 32 32 32 33 33 33 33 34 34 34 33 33 33 33 34 33 33 33 33 33 33 33 33 33 33 33 32 32 32 32 32 32 32 32 32 32 33 33 33 33 33 32 32 32 31 31 30 29 28 28 27 26 25 25 24 24
11 15 17 19 22 24 26 27 28 29 28 29 30 30 30 30 30 30 30 30 30 31 31 31 31 32 32 32 32 32 32 31 31 31 32 33 34 34 33 33 33 33 33 33 33 33 33 33 33 33 33 33 33 33 33 32 32 32 32 32 32 32 32 32 32 32 32 33 33 33 33 32 32 31 31 30 29 28 28 27 26 26 25 24 24
10 12 15 18 20 23 25 26 27 28 29 29 29 29 30 30 30 30 30 30 30 31 31 31 31 32 32 32 32 32 31 31 31 32 32 33 33 33 33 33 33 33 33 33 33 33 33 33 33 33 33 33 33 33 33 32 32 32 32 32 32 32 32 32 32 32 32 32 32 33 32 32 32 31 31 31 30 29 28 27 26 26 25 24 24
9 11 14 17 20 22 24 26 27 28 29 29 29 29 30 30 30 30 31 31 31 31 31 31 31 32 32 32 32 32 32 32 32 33 33 33 33 33 33 33 33 33 33 33 33 33 33 33 33 33 33 33 33 32 32 32 32 32 32 32 32 32 32 32 32 32 32 32 32 32 32 32 31 31 30 30 29 28 28 27 26 25 25 24 24
8 10 13 16 19 21 23 25 26 27 28 29 29 29 29 29 30 30 30 31 31 31 31 31 31 32 32 32 32 32 32 32 33 33 33 33 33 33 33 33 33 33 33 33 33 33 33 32 32 32 32 32 32 32 32 32 32 32 32 32 32 32 32 32 32 32 32 32 32 32 32 32 31 31 30 29 29 28 27 26 26 25 25 24 24
9 11 13 16 18 21 23 25 26 26 26 28 28 28 29 30 29 30 30 30 30 31 31 31 31 31 32 32 32 32 32 32 32 32 32 33 33 33 33 33 32 33 33 33 33 33 32 32 32 32 32 32 32 32 32 32 32 32 32 32 32 32 32 32 32 32 32 32 32 31 31 31 30 30 30 29 29 28 27 26 25 25 24 24 24
10 11 13 16 19 22 25 26 25 26 26 27 27 28 29 29 29 29 30 30 30 30 31 31 31 31 31 32 32 32 31 32 32 32 32 32 32 32 32 32 32 32 32 32 32 32 32 32 32 32 32 32 32 32 32 32 32 32 32 32 32 32 32 31 31 31 31 31 31 31 31 30 30 30 29 29 28 27 26 25 25 24 24 24 23
8 11 13 16 19 22 25 26 25 25 26 26 27 28 29 29 29 29 29 29 29 30 30 31 31 31 31 31 31 31 31 31 31 32 32 32 32 32 32 32 32 32 32 32 32 32 32 32 32 32 32 32 32 32 32 32 32 32 32 32 32 32 32 31 31 31 31 31 30 30 30 30 29 29 29 28 28 27 26 25 25 23 24 23 23
8 10 12 15 18 21 25 26 25 26 26 27 27 28 28 29 29 29 29 29 29 29 30 30 30 31 31 31 31 31 31 31 31 31 32 32 32 32 32 32 32 32 32 32 32 32 32 32 32 32 32 32 32 32 32 32 32 32 32 32 32 32 32 32 32 31 31 31 31 30 30 29 29 29 28 28 27 27 26 25 25 24 24 23 23
5 8 10 13 15 18 22 25 26 25 26 27 28 28 29 29 29 29 29 29 29 29 29 29 30 30 30 30 31 31 31 31 31 31 31 32 32 32 32 32 31 31 31 32 32 32 32 32 32 32 32 32 32 32 32 32 32 32 32 32 32 32 32 32 31 31 31 31 31 30 29 29 29 28 28 27 27 26 26 25 24 24 24 23 23
3 5 7 9 11 13 15 18 23 26 27 27 28 28 29 29 29 29 29 29 29 29 29 29 29 30 30 30 30 31 31 31 31 31 31 31 31 31 31 31 31 31 31 31 31 32 32 32 32 32 32 32 32 32 32 32 32 32 32 32 32 32 31 30 31 31 31 31 31 30 29 29 28 28 27 27 26 26 25 25 24 24 23 23 23
1 2 3 4 7 7 9 12 16 18 23 27 28 28 29 29 29 29 29 29 29 29 30 30 30 30 30 30 30 31 31 31 31 31 31 31 31 31 31 31 31 31 31 31 31 31 31 32 32 32 32 32 32 32 32 32 32 32 32 32 31 30 30 30 30 31 30 31 30 30 29 29 28 28 27 27 26 26 26 25 24 24 23 23 22
-1 -0 0 1 2 2 4 6 8 11 14 16 18 23 25 26 27 28 28 29 29 29 30 30 30 30 30 30 30 30 30 30 30 31 31 31 31 31 31 32 31 31 31 31 31 31 30 30 31 31 31 31 31 31 32 32 32 32 32 32 30 29 29 30 30 30 30 31 30 30 29 29 28 28 27 27 26 26 25 25 24 24 23 23 22
-4 -3 -3 -2 -2 -1 -0 1 2 5 7 8 10 11 14 15 16 17 20 21 21 21 21 21 22 21 21 21 22 22 21 21 21 22 22 23 23 23 22 22 21 20 19 19 20 20 20 20 20 20 21 21 21 22 23 23 24 26 28 30 29 29 29 29 30 29 29 29 31 30 29 28 28 27 27 27 27 26 25 25 24 24 23 23 22